EPKKEPWR

Guest
Details From EPKK - BALICE
To EPWR - STRACHOWICE
Flight Number -
Tags generated
Created
Modified
Stats Distance 127 nm / 235 km
Max Altitude 9,300 ft / 2,835 m
Waypoints 3
Social Downloads 0
Likes 0
Share VATSIM

Download

Looking for another format? Having issues loading an existing format? Contact us
Advertisement - Login to hide

Notes

Basic altitude profile: - Ascent Rate: 2500ft/min - Ascent Speed: 250kts - Cruise Altitude: 18000ft - Cruise Speed: 420kts - Descent Rate: 1500ft/min - Descent Speed: 250kts Options: - Use NATs: yes - Use PACOTS: yes - Use low airways: yes - Use high airways: yes

Route

EPKK SABAB EPWR

ID Type Via Altitude Latitude Longitude Leg Dist Tot Dist Heading (true) Name
O EPKK APT - 0 ft / 0 m 50.07782˚ 19.78550˚ - 0 nm - BALICE
SABAB FIX - 9,300 ft / 2,835 m 50.77028˚ 17.89917˚ 83 nm 83 nm 301° / 299° -
O EPWR APT - 0 ft / 0 m 51.10388˚ 16.88189˚ 43 nm 126 nm 298° / 297° STRACHOWICE

Altitude Profile

Advertisement - Login to hide

EPKK

Details ICAO EPKK (KRK)
Name BALICE
Region Poland
Timezone Europe/Warsaw (UTC+1.0)
Stats Elevation 791 ft / 241 m (AMSL)
Location 50.077821° 19.785503°
Runways 1
Magnetic Variation 5.203° E

METAR

EPKK 170400Z 25004KT 2200 -SN BR FEW012 BKN020 M01/M02 Q1014 RESN

Decode

TAF

TAF EPKK 162330Z 1700/1724 24003KT 4000 BR BKN033 TEMPO 1700/1709 2000 -SN BR BKN008 PROB40 1700/1707 1200 -SN BR BKN003 TEMPO 1709/1715 8000 TEMPO 1715/1724 2000 -SN BR BKN007 PROB40 1721/1724 0600 FZFG BKN002

Decode

Departure Runways

ID Width Length Bearing (true) Bearing (mag) Surface Threshold Offset Overrun Length
07 197 ft / 60 m 8,343 ft / 2,543 m 77.75° 72.55° Concrete 0 ft / 0 m 0 ft / 0 m
25 197 ft / 60 m 8,343 ft / 2,543 m 257.77° 252.57° Concrete 784 ft / 239 m 0 ft / 0 m

EPWR

Details ICAO EPWR (WRO)
Name STRACHOWICE
Region Poland
Timezone Europe/Warsaw (UTC+1.0)
Stats Elevation 404 ft / 123 m (AMSL)
Location 51.103882° 16.881892°
Runways 1
Magnetic Variation 4.614° E

METAR

EPWR 170400Z 25005KT 9999 BKN013 01/00 Q1014

Decode

TAF

TAF EPWR 162330Z 1700/1724 26006KT 5000 BR BKN005 BKN015 TEMPO 1700/1718 3000 -RA BR BKN003 BKN010 PROB30 TEMPO 1700/1706 1500 SHRASN BKN010CB

Decode

Destination Runways

ID Width Length Bearing (true) Bearing (mag) Surface Threshold Offset Overrun Length
12 197 ft / 60 m 8,192 ft / 2,497 m 115.99° 111.38° Concrete 0 ft / 0 m 0 ft / 0 m
30 197 ft / 60 m 8,192 ft / 2,497 m 296.01° 291.40° Concrete 0 ft / 0 m 0 ft / 0 m

Approach Navaids

Runway Type Ident Frequency Range Bearing (true) Bearing (mag) Slope Elevation
30 Localiser WRO 110.30 MHz 18 nm / 33 km 295.98° 291.37° - 404 ft / 123 m (AMSL)
30 Glidescope WRO 110.30 MHz 10 nm / 19 km 296.00° 291.39° 3.00° 404 ft / 123 m (AMSL)
30 DME WRO 110.30 MHz 18 nm / 33 km - - - 394 ft / 120 m (AMSL)

Popular Alternatives